Temp
20 19 18 18 18 17 16 16 16 16 16 16 17 17 17 16 16 16 16 16 16 16 16 17 17 17 17 17 17 17 17 17 17 17 17 17 17 16 16 15 15 14 17
19 17 18 18 18 17 16 16 16 16 16 17 17 17 17 16 16 16 16 16 16 16 17 17 17 17 17 17 17 17 17 17 17 17 17 17 17 17 17 16 15 16 16
18 17 17 17 17 17 16 16 16 16 16 17 17 17 17 16 16 17 17 17 16 16 16 17 16 16 16 16 16 16 16 16 16 17 17 17 17 17 17 17 17 16 16
18 16 16 17 17 16 16 16 15 16 16 16 16 16 16 16 16 16 16 17 17 17 17 17 16 16 16 16 16 16 16 16 17 17 17 18 18 17 16 16 16 16 16
17 17 17 17 17 16 16 16 15 15 16 16 16 16 16 16 16 17 17 16 16 16 16 16 16 16 16 16 16 16 16 16 17 18 18 16 17 16 16 16 16 16 16
16 16 17 17 16 16 16 15 15 15 16 16 16 16 16 16 16 16 17 17 17 17 16 16 16 16 16 16 16 16 16 17 17 18 18 17 16 17 16 16 16 16 16
15 15 16 16 16 16 15 15 15 15 15 16 16 16 16 16 16 16 16 17 17 17 17 17 17 17 16 16 16 17 17 17 17 17 19 18 17 17 17 17 17 16 16
15 15 15 16 16 16 15 15 15 15 15 16 16 16 16 16 16 16 16 16 16 16 17 17 17 17 17 17 17 17 17 17 17 18 18 17 17 16 16 16 17 16 16
15 15 14 14 15 15 15 15 15 15 15 15 15 16 16 16 16 16 16 16 16 16 16 16 16 16 16 16 16 16 17 17 17 18 17 17 16 16 15 16 16 16 16
15 14 14 14 14 15 15 15 15 15 15 15 15 15 15 15 15 15 16 15 15 15 15 15 15 16 16 16 16 16 16 17 17 18 16 17 16 15 15 15 15 15 15
14 14 14 14 14 14 16 15 15 15 15 15 15 15 15 15 15 15 15 15 15 15 15 15 15 15 16 15 15 16 16 15 17 16 16 16 15 15 15 15 15 15 15
14 15 15 14 14 13 14 14 14 14 14 14 13 14 15 14 14 15 15 15 15 15 15 15 15 15 15 14 14 14 15 14 16 16 16 15 13 13 13 15 15 15 14
16 15 14 14 13 14 14 14 15 15 14 13 15 14 14 14 14 14 14 14 15 15 15 15 15 15 15 15 15 15 15 15 15 15 14 12 12 12 12 12 13 14 14
14 13 13 13 13 13 13 13 13 13 13 13 14 14 14 13 14 14 13 13 14 13 14 14 14 14 15 14 14 13 14 14 14 13 13 13 12 12 12 12 12 12 12
13 12 13 13 14 14 13 14 14 13 14 14 14 14 14 13 13 13 13 13 13 13 13 13 13 13 13 13 12 12 13 13 12 12 12 11 11 11 11 11 11 11 11
12 13 13 13 13 14 14 14 14 14 14 13 14 14 13 13 13 11 12 12 12 11 11 12 12 12 12 12 11 10 12 11 11 12 12 11 10 10 11 11 11 11 11
12 12 13 13 13 13 14 13 13 13 12 11 12 14 14 13 13 12 10 10 10 10 11 11 12 12 12 11 10 9 9 9 9 9 9 9 9 9 10 10 11 11 11
11 11 12 12 12 12 13 12 12 13 11 10 10 12 13 13 13 11 9 12 12 11 11 10 11 12 11 11 10 10 9 9 9 9 9 9 10 8 8 9 10 10 10
12 12 13 13 13 13 13 13 12 12 11 10 9 11 12 12 12 12 12 12 11 10 11 10 10 11 10 10 10 10 10 10 9 9 8 8 8 7 7 6 7 7 7
10 11 11 11 12 12 12 13 12 11 10 9 9 11 12 12 11 11 12 12 11 9 11 10 9 9 10 11 12 10 9 9 9 9 9 8 7 7 6 5 5 5 5
10 11 11 11 11 11 11 11 12 11 12 12 11 12 12 11 11 10 10 10 10 11 11 8 8 8 8 9 10 11 10 9 9 9 9 8 8 7 6 5 5 4 4
9 9 10 10 10 10 10 11 12 11 12 11 11 11 11 11 11 11 11 11 9 9 11 11 8 9 8 10 9 11 13 11 11 9 8 7 6 6 6 5 4 3 3
11 9 10 9 9 8 8 10 10 12 12 11 10 10 10 10 11 11 11 11 10 9 11 11 10 9 8 9 10 9 12 12 10 10 9 8 7 6 5 5 4 3 3
11 11 10 8 8 9 10 11 11 9 7 7 9 10 10 10 10 10 10 11 10 11 11 10 11 10 8 7 7 7 7 7 8 11 10 9 8 7 5 4 4 3 2
12 11 10 9 8 9 10 10 9 8 9 9 10 10 10 10 10 10 9 10 10 11 10 10 10 10 10 8 6 6 6 7 6 7 8 8 7 7 6 5 4 3 2
12 11 10 9 9 8 9 9 9 9 9 9 9 9 9 9 10 9 9 10 10 10 10 10 10 10 9 8 6 5 5 5 5 5 5 6 5 6 6 5 4 3 2
Height
1531 1531 1533 1534 1536 1536 1537 1539 1541 1541 1542 1542 1543 1543 1543 1543 1543 1543 1544 1544 1545 1545 1546 1546 1546 1546 1547 1547 1547 1547 1547 1547 1547 1546 1546 1546 1545 1545 1544 1544 1544 1546 1545
1531 1532 1534 1535 1537 1538 1539 1541 1543 1544 1545 1545 1545 1545 1545 1545 1545 1545 1546 1546 1546 1546 1547 1547 1547 1548 1549 1549 1549 1550 1550 1550 1549 1549 1549 1548 1549 1549 1548 1547 1546 1546 1545
1534 1534 1535 1537 1538 1539 1541 1542 1545 1546 1547 1547 1547 1547 1548 1548 1547 1548 1548 1548 1548 1548 1548 1549 1549 1549 1550 1550 1550 1550 1551 1551 1551 1551 1551 1550 1552 1551 1550 1550 1550 1549 1548
1535 1537 1536 1538 1540 1541 1543 1545 1546 1548 1549 1549 1549 1549 1549 1549 1549 1549 1550 1550 1551 1551 1551 1551 1551 1552 1552 1552 1553 1553 1553 1553 1554 1553 1553 1556 1557 1553 1551 1551 1551 1551 1550
1536 1537 1537 1539 1541 1542 1544 1546 1547 1549 1549 1550 1550 1550 1550 1550 1551 1551 1551 1552 1552 1553 1554 1554 1554 1554 1554 1554 1555 1555 1555 1555 1555 1555 1558 1557 1557 1554 1553 1553 1552 1551 1550
1534 1536 1538 1540 1541 1543 1545 1547 1548 1549 1550 1551 1551 1551 1552 1552 1552 1552 1553 1553 1553 1554 1554 1555 1555 1555 1555 1556 1556 1556 1556 1556 1556 1558 1559 1557 1555 1554 1554 1553 1553 1552 1552
1534 1536 1538 1540 1542 1544 1546 1548 1549 1551 1551 1552 1552 1553 1553 1553 1554 1554 1554 1554 1554 1555 1555 1556 1556 1557 1557 1557 1556 1557 1557 1556 1556 1558 1559 1556 1555 1555 1554 1553 1552 1552 1551
1536 1537 1538 1540 1543 1545 1547 1549 1550 1551 1552 1553 1554 1554 1554 1554 1555 1555 1555 1556 1556 1556 1556 1557 1557 1557 1557 1557 1557 1557 1557 1557 1556 1558 1559 1554 1553 1554 1553 1553 1552 1552 1551
1537 1537 1540 1541 1543 1546 1548 1550 1551 1553 1554 1554 1555 1555 1556 1556 1556 1557 1557 1557 1557 1557 1558 1558 1558 1558 1557 1557 1557 1557 1556 1556 1556 1558 1558 1552 1552 1553 1552 1551 1551 1550 1549
1537 1539 1540 1543 1546 1546 1548 1551 1552 1554 1555 1555 1556 1557 1557 1557 1558 1558 1557 1558 1558 1558 1558 1558 1558 1558 1557 1557 1557 1557 1557 1556 1556 1558 1551 1552 1553 1552 1551 1550 1549 1549 1548
1539 1540 1541 1544 1546 1547 1549 1551 1552 1554 1555 1556 1557 1559 1559 1561 1560 1558 1558 1558 1558 1558 1558 1559 1558 1558 1558 1557 1556 1557 1556 1555 1557 1551 1551 1552 1552 1551 1549 1548 1547 1546 1545
1540 1541 1543 1546 1546 1549 1551 1554 1555 1556 1556 1557 1558 1560 1563 1560 1560 1561 1558 1558 1558 1557 1557 1558 1558 1558 1557 1555 1554 1555 1554 1552 1551 1551 1551 1550 1550 1549 1547 1546 1545 1545 1543
1542 1545 1545 1545 1547 1550 1552 1556 1558 1559 1558 1556 1556 1557 1558 1559 1559 1559 1558 1558 1557 1557 1556 1556 1556 1556 1556 1556 1555 1553 1553 1551 1551 1550 1550 1549 1549 1548 1547 1545 1542 1541 1540
1541 1542 1543 1543 1545 1548 1552 1553 1555 1555 1556 1555 1555 1557 1557 1557 1557 1557 1558 1558 1557 1556 1555 1555 1555 1554 1554 1553 1552 1551 1550 1550 1549 1549 1549 1549 1548 1546 1546 1544 1542 1539 1536
1541 1542 1543 1544 1545 1547 1549 1551 1552 1554 1555 1555 1555 1555 1555 1556 1556 1556 1556 1556 1555 1555 1555 1555 1555 1556 1555 1552 1552 1548 1548 1548 1548 1548 1548 1548 1546 1545 1543 1542 1541 1538 1535
1541 1543 1543 1545 1547 1548 1549 1551 1553 1553 1554 1555 1554 1554 1554 1554 1554 1555 1556 1556 1554 1554 1553 1553 1552 1554 1554 1552 1550 1549 1548 1549 1548 1548 1547 1547 1546 1544 1542 1541 1539 1536 1533
1540 1542 1543 1545 1547 1548 1549 1551 1553 1553 1553 1554 1553 1552 1552 1551 1552 1553 1554 1553 1552 1551 1552 1551 1553 1554 1554 1553 1551 1550 1550 1550 1549 1550 1550 1551 1544 1543 1541 1539 1537 1535 1532
1541 1541 1541 1545 1546 1548 1549 1551 1552 1552 1552 1553 1553 1552 1551 1551 1551 1553 1553 1552 1551 1551 1550 1550 1552 1555 1553 1552 1552 1553 1551 1552 1550 1549 1548 1547 1547 1547 1542 1537 1535 1533 1531
1540 1540 1542 1544 1546 1547 1550 1550 1552 1552 1551 1553 1553 1552 1551 1551 1552 1551 1552 1552 1552 1551 1550 1550 1552 1555 1553 1553 1554 1555 1555 1554 1552 1551 1549 1548 1545 1544 1543 1539 1535 1532 1529
1535 1538 1538 1541 1544 1548 1549 1550 1553 1552 1551 1553 1552 1552 1552 1552 1553 1552 1552 1552 1552 1552 1551 1551 1552 1553 1556 1556 1557 1556 1555 1554 1554 1553 1552 1549 1548 1545 1543 1541 1541 1537 1531
1534 1536 1538 1541 1544 1545 1547 1548 1550 1551 1551 1552 1552 1552 1552 1553 1553 1553 1553 1553 1553 1553 1552 1553 1554 1553 1554 1554 1556 1557 1556 1554 1553 1554 1553 1550 1546 1546 1544 1541 1538 1536 1534
1534 1534 1537 1541 1543 1543 1545 1544 1547 1553 1551 1554 1554 1553 1554 1553 1553 1555 1554 1554 1555 1555 1553 1553 1554 1555 1554 1553 1555 1557 1557 1558 1556 1554 1553 1551 1547 1546 1543 1542 1538 1535 1532
1533 1535 1536 1539 1542 1545 1545 1545 1548 1549 1550 1553 1554 1555 1555 1554 1555 1558 1557 1556 1556 1557 1555 1555 1554 1556 1557 1555 1555 1557 1558 1558 1557 1556 1555 1553 1550 1546 1543 1542 1539 1536 1532
1531 1534 1536 1538 1540 1543 1544 1544 1547 1550 1553 1552 1553 1553 1556 1557 1557 1560 1558 1557 1558 1558 1557 1558 1556 1556 1557 1558 1560 1561 1560 1560 1559 1559 1557 1554 1551 1548 1544 1541 1538 1535 1532
1528 1531 1535 1537 1539 1541 1543 1545 1546 1548 1550 1552 1553 1553 1557 1559 1559 1561 1560 1559 1559 1559 1561 1560 1559 1559 1558 1558 1562 1561 1562 1564 1562 1562 1557 1554 1551 1549 1545 1542 1538 1535 1532
1525 1528 1531 1535 1537 1539 1541 1544 1545 1548 1550 1552 1552 1555 1556 1559 1560 1560 1561 1563 1562 1562 1563 1562 1562 1561 1561 1562 1561 1562 1563 1563 1563 1561 1557 1553 1550 1547 1545 1543 1539 1535 1530
Wind_Speed
13 13 13 13 11 10 12 11 10 9 9 10 9 9 9 9 9 9 8 10 8 7 8 9 10 10 10 11 11 12 13 13 14 15 16 15 12 11 12 13 13 2 6
14 14 14 13 12 12 12 11 9 10 10 9 9 9 9 9 8 9 8 8 8 8 9 10 10 10 10 10 11 11 13 14 16 17 17 16 13 12 10 8 8 3 5
15 13 14 14 13 13 13 13 11 9 9 9 9 9 9 8 8 8 7 7 8 9 10 9 9 9 9 9 10 10 10 11 13 17 14 7 10 11 11 9 8 8 8
14 14 14 15 13 13 12 11 10 8 7 7 7 7 8 8 8 8 7 6 6 6 6 7 7 7 7 7 7 7 7 9 13 12 10 5 6 7 8 8 8 8 8
16 16 14 15 13 12 11 10 8 7 6 5 5 5 6 6 6 6 6 6 5 5 5 5 5 5 5 5 5 5 6 8 11 12 5 5 8 7 9 8 7 6 6
16 16 16 15 13 12 10 9 8 6 5 5 5 4 4 4 5 5 5 4 4 3 3 3 3 3 2 2 1 2 3 3 4 6 5 8 4 8 8 7 6 7 8
16 14 17 15 13 11 9 8 7 6 6 5 4 4 3 3 4 4 4 3 3 2 1 1 2 2 3 3 3 3 3 3 5 4 6 4 9 12 10 9 8 8 8
16 18 16 15 13 11 10 8 7 6 5 4 3 3 3 3 3 3 3 2 2 2 1 2 3 4 4 5 5 6 6 6 5 5 5 8 9 13 11 11 11 11 11
17 15 14 13 13 10 8 6 5 4 4 3 2 2 2 2 2 2 2 2 3 3 4 4 5 6 6 6 6 7 7 8 8 5 7 8 12 13 10 10 11 12 12
17 17 16 12 11 9 7 6 4 4 3 2 2 2 2 2 1 1 1 1 3 4 4 5 5 6 7 7 8 7 8 7 7 8 6 9 15 11 11 12 13 13 14
14 14 16 16 12 8 7 6 4 4 3 1 1 2 4 2 3 7 4 3 3 4 5 6 7 7 8 7 5 7 8 8 3 3 6 11 12 10 12 12 12 13 14
12 13 14 13 15 9 8 6 5 4 3 3 2 1 1 4 4 4 5 4 5 6 6 6 5 5 4 10 8 6 12 9 9 12 11 15 7 6 8 13 14 15 15
12 10 12 12 11 9 8 7 5 3 3 1 4 3 3 3 2 2 5 4 5 5 8 7 7 7 10 11 12 15 14 13 12 11 13 9 10 12 14 16 19 21 22
14 16 15 15 14 14 9 8 5 5 5 4 3 5 6 4 7 6 4 7 8 7 9 10 11 12 12 10 10 8 13 12 12 13 12 13 12 12 15 18 18 20 21
16 14 13 12 10 10 10 6 4 3 4 5 5 6 7 9 11 11 12 12 11 5 5 5 4 5 4 8 5 5 13 11 9 10 9 10 13 14 15 15 15 16 18
10 13 10 8 7 7 6 4 4 4 4 6 8 10 10 7 8 4 5 5 5 6 5 5 6 3 4 6 4 2 7 5 6 8 12 14 15 17 16 16 16 18 20
11 10 11 10 7 5 4 4 5 5 3 3 6 6 6 5 4 3 4 4 5 5 6 5 4 4 1 3 6 6 7 7 7 7 5 5 16 18 20 16 17 18 19
12 11 10 9 9 6 5 4 3 3 3 3 4 4 3 2 1 3 4 3 4 5 4 6 5 4 2 2 3 4 6 7 8 8 7 6 5 7 18 20 18 18 18
14 10 10 10 9 8 6 4 3 4 5 4 3 3 2 2 1 2 2 3 5 6 6 7 7 5 6 6 5 6 5 5 6 7 9 10 11 11 10 17 22 23 27
20 18 14 13 13 11 8 4 2 4 5 5 4 2 1 2 2 4 4 4 6 7 7 9 8 7 6 5 2 2 3 4 5 7 9 9 11 12 12 12 11 14 23
16 16 15 17 18 14 10 5 3 3 2 1 1 1 2 4 5 7 7 9 9 9 10 11 10 8 5 3 2 1 1 5 4 6 8 10 11 11 12 13 12 12 13
15 15 16 16 15 12 8 9 7 6 1 1 2 4 5 6 7 7 9 9 10 9 11 12 13 11 12 7 3 1 2 1 5 4 7 10 15 11 13 13 14 15 15
18 17 18 15 12 12 11 8 9 4 4 4 4 5 7 9 9 8 9 11 10 10 12 11 13 14 10 14 13 6 3 5 10 4 7 11 14 12 14 11 14 15 17
19 18 17 16 15 12 11 10 9 8 9 11 8 8 9 9 10 9 10 11 11 11 11 11 12 12 13 11 10 12 11 11 6 4 6 11 13 12 15 12 13 15 18
20 19 18 17 15 14 14 11 9 11 10 10 11 12 11 10 10 10 10 11 10 11 11 11 11 11 12 12 11 9 9 7 10 5 8 15 14 10 15 14 14 16 17
20 20 20 19 16 14 13 13 11 10 10 10 12 13 14 13 12 11 11 10 10 10 10 11 11 12 13 12 11 11 10 9 9 8 12 15 18 16 14 15 14 19 19
Wind_Direction
136 149 135 123 117 115 115 119 120 120 119 115 106 96 93 90 92 88 100 112 107 88 84 82 80 81 85 86 84 79 72 73 73 70 61 50 55 64 74 84 65 54 39
136 151 139 128 121 118 119 119 120 118 117 110 101 96 90 87 87 95 100 114 115 107 102 102 101 97 92 88 84 81 73 69 66 66 50 41 32 39 48 77 97 116 65
145 151 143 133 126 121 121 121 121 118 119 111 103 92 87 82 80 87 100 107 112 112 111 109 109 109 109 108 102 100 93 81 78 72 53 58 349 28 34 37 32 22 17
148 138 149 140 133 127 128 128 125 127 123 115 106 100 93 88 85 88 98 101 102 103 102 103 102 102 105 105 100 88 78 73 71 61 61 38 13 346 14 30 34 29 19
142 161 157 144 140 135 136 139 140 141 137 129 118 105 97 90 86 88 99 110 110 100 87 78 77 76 77 77 68 58 62 73 71 32 38 31 23 337 352 353 0 14 14
144 173 162 148 143 138 142 144 145 149 142 132 115 103 94 93 90 88 92 103 113 113 106 94 82 70 65 51 17 14 32 60 41 12 19 341 310 352 354 348 330 337 348
148 154 156 153 148 147 146 144 143 148 149 142 128 112 101 102 98 96 93 95 101 100 72 35 20 14 1 349 341 335 327 322 1 359 346 319 296 314 327 331 333 312 312
143 151 155 157 154 158 154 154 154 157 161 157 147 126 113 101 92 86 80 74 64 45 14 353 343 339 334 329 328 330 333 332 336 328 319 311 296 306 315 318 318 314 314
140 145 144 150 158 167 164 160 162 164 166 153 130 107 107 99 95 82 61 30 18 9 2 355 349 342 333 327 327 329 333 338 349 334 326 268 295 303 312 313 309 304 303
152 145 146 144 144 162 176 171 171 176 171 160 130 100 87 48 3 348 324 22 9 13 2 352 349 350 348 342 339 344 354 11 36 328 258 280 299 304 309 306 308 306 305
161 154 148 144 144 162 156 168 167 190 180 181 72 15 45 29 360 332 302 305 319 337 336 333 334 338 344 329 329 346 340 309 299 268 285 300 293 297 292 297 300 299 297
166 155 147 145 171 146 130 136 142 116 169 149 172 160 320 238 218 225 298 294 297 308 319 328 326 351 329 344 357 357 319 331 285 255 271 287 319 325 315 297 298 299 305
153 150 156 158 171 133 141 142 139 138 140 206 212 194 223 264 258 3 348 356 296 300 293 298 293 295 308 302 288 292 293 298 296 286 290 299 296 300 309 311 313 308 305
163 175 180 168 149 151 140 160 133 178 173 221 272 266 275 277 280 284 320 320 326 323 307 302 303 305 308 325 300 313 293 296 294 305 308 308 307 309 313 313 310 313 312
177 177 172 169 165 167 177 188 195 225 267 275 281 280 287 299 293 291 291 299 288 305 323 333 321 327 349 295 289 327 300 305 313 308 310 334 341 323 322 321 322 321 318
184 181 175 174 177 180 180 202 224 251 280 297 293 291 289 286 301 341 342 334 339 333 329 333 304 345 295 294 328 309 331 5 347 348 345 335 332 334 330 323 323 323 319
163 163 169 174 181 186 202 213 247 267 326 4 313 303 305 296 317 13 2 -0 348 348 6 357 22 25 283 28 58 60 37 40 38 43 44 20 348 342 338 340 330 327 325
146 153 154 162 162 167 174 155 146 136 84 51 20 353 345 346 8 48 27 360 24 11 20 22 57 63 296 115 94 74 64 60 54 48 24 18 8 2 342 337 347 344 344
225 181 175 170 156 142 142 124 105 100 83 67 54 29 38 35 54 44 22 32 46 34 38 61 59 71 36 71 64 68 76 63 56 40 37 28 9 12 14 350 355 349 341
207 206 207 175 177 153 132 114 124 117 94 76 67 47 58 77 76 76 75 84 74 64 57 68 73 82 83 83 80 76 81 59 46 35 31 25 18 16 6 7 3 340 340
189 190 191 199 191 175 153 117 47 23 81 328 79 110 110 113 108 96 86 80 67 76 73 70 61 73 45 43 60 307 342 36 61 48 19 16 17 9 4 3 357 355 346
179 183 190 186 187 196 209 229 245 211 107 199 108 114 121 121 119 105 103 94 86 68 79 79 87 55 51 66 50 342 251 182 4 -0 19 12 3 8 5 358 352 356 350
190 190 188 189 172 164 170 177 179 185 182 169 149 140 133 119 114 113 105 101 89 87 80 80 80 87 53 46 56 88 350 1 347 337 355 4 1 1 355 357 345 355 346
194 190 186 183 183 190 191 195 190 159 153 172 162 148 141 131 121 113 106 100 98 91 89 81 82 81 78 61 46 46 56 43 14 339 342 345 359 348 349 352 346 352 344
186 182 179 181 176 189 200 199 180 181 198 182 167 153 148 142 130 123 106 102 100 96 93 90 87 84 78 72 60 48 43 19 11 337 323 339 348 345 344 345 346 347 341
185 184 181 181 178 175 189 192 192 203 198 182 169 158 151 148 135 120 111 106 104 99 92 88 82 78 75 75 62 54 42 28 1 355 342 343 344 347 347 345 339 343 341